Wetterdaten: Freitag, 12.02.2016
Datum Zeit Temp. A. Mod.Schuppen Aussentemp2 Feuchte A. Luftdruck Regen Wind Richtung Richtung Sonnenschein Helligkeit Solar
12.02.2016 00:04 3,2 C 2,3 C 0,0 C 86 % 1002,8 hPa 0,0 l/m 6,7 km/h (2 Bft) S 190 0 min 0 lux 0 W/m
12.02.2016 00:09 3,2 C 2,2 C 0,0 C 86 % 1002,8 hPa 0,0 l/m 7,0 km/h (2 Bft) S-SO 150 0 min 200 klux 0 W/m
12.02.2016 00:14 3,1 C 2,1 C 0,0 C 85 % 1002,8 hPa 0,0 l/m 0,0 km/h (0 Bft) S 190 0 min 0 lux 0 W/m
12.02.2016 00:19 3,1 C 2,1 C 0,0 C 85 % 1002,8 hPa 0,0 l/m 0,3 km/h (0 Bft) O22.5 100 0 min 0 lux 0 W/m
12.02.2016 00:24 3,0 C 2,1 C 0,0 C 85 % 1002,8 hPa 0,0 l/m 0,9 km/h (0 Bft) O-SO22.5 110 0 min 0 lux 0 W/m
12.02.2016 00:29 3,0 C 2,2 C 0,0 C 86 % 1002,8 hPa 0,0 l/m 1,3 km/h (1 Bft) O22.5 100 0 min 0 lux 0 W/m
12.02.2016 00:34 3,0 C 2,3 C 0,0 C 86 % 1002,8 hPa 0,0 l/m 7,2 km/h (2 Bft) O22.5 90 0 min 0 lux 0 W/m
12.02.2016 00:39 3,0 C 2,3 C 0,0 C 86 % 1002,8 hPa 0,0 l/m 0,7 km/h (0 Bft) O-SO 115 0 min 0 lux 0 W/m
12.02.2016 00:44 3,0 C 2,3 C 0,0 C 86 % 1002,8 hPa 0,0 l/m 0,7 km/h (0 Bft) SO22.5 135 0 min 0 lux 0 W/m
12.02.2016 00:49 3,1 C 2,4 C 0,0 C 86 % 1002,8 hPa 0,0 l/m 5,8 km/h (2 Bft) SO 125 0 min 0 lux 0 W/m
12.02.2016 00:54 3,1 C 2,5 C 0,0 C 86 % 1002,8 hPa 0,0 l/m 8,5 km/h (2 Bft) SO 140 0 min 0 lux 0 W/m
12.02.2016 00:59 3,1 C 2,4 C 0,0 C 86 % 1002,8 hPa 0,0 l/m 7,6 km/h (2 Bft) SO 145 0 min 0 lux 0 W/m
12.02.2016 01:04 3,2 C 2,4 C 0,0 C 86 % 1002,8 hPa 0,0 l/m 7,8 km/h (2 Bft) S-SO 150 0 min 0 lux 0 W/m
12.02.2016 01:09 3,2 C 2,3 C 0,0 C 86 % 1002,8 hPa 0,0 l/m 8,2 km/h (2 Bft) S-SO 150 0 min 0 lux 0 W/m
12.02.2016 01:14 3,3 C 2,1 C 0,0 C 86 % 1002,8 hPa 0,0 l/m 9,2 km/h (2 Bft) S-SO22.5 155 0 min 0 lux 0 W/m
12.02.2016 01:19 3,3 C 2,0 C 0,0 C 86 % 1002,8 hPa 0,0 l/m 8,5 km/h (2 Bft) S22.5 175 0 min 0 lux 0 W/m
12.02.2016 01:24 3,3 C 2,0 C 0,0 C 86 % 1002,8 hPa 0,0 l/m 11,3 km/h (2 Bft) S22.5 175 0 min 0 lux 0 W/m
12.02.2016 01:29 3,3 C 2,0 C 0,0 C 85 % 1002,8 hPa 0,0 l/m 11,0 km/h (2 Bft) W-SW 250 0 min 200 klux 0 W/m
12.02.2016 01:34 3,3 C 2,0 C 0,0 C 85 % 1002,8 hPa 0,0 l/m 9,5 km/h (2 Bft) S-SO22.5 160 0 min 0 lux 0 W/m
12.02.2016 01:39 3,3 C 2,0 C 0,0 C 85 % 1002,8 hPa 0,0 l/m 10,6 km/h (2 Bft) S-SO22.5 165 0 min 0 lux 0 W/m
12.02.2016 01:44 3,4 C 2,0 C 0,0 C 85 % 1002,8 hPa 0,0 l/m 8,7 km/h (2 Bft) S-SO22.5 160 0 min 0 lux 0 W/m
12.02.2016 01:49 3,4 C 2,1 C 0,0 C 85 % 1002,8 hPa 0,0 l/m 10,6 km/h (2 Bft) S-SO 160 0 min 0 lux 0 W/m
12.02.2016 01:54 3,4 C 2,1 C 0,0 C 85 % 1002,8 hPa 0,0 l/m 11,5 km/h (2 Bft) S-SO22.5 160 0 min 0 lux 0 W/m
12.02.2016 01:59 3,4 C 2,0 C 0,0 C 85 % 1002,8 hPa 0,0 l/m 9,6 km/h (2 Bft) S22.5 180 0 min 0 lux 0 W/m
12.02.2016 02:04 3,3 C 1,7 C 0,0 C 85 % 1002,8 hPa 0,0 l/m 9,8 km/h (2 Bft) S22.5 185 0 min 0 lux 0 W/m
12.02.2016 02:09 3,2 C 1,4 C 0,0 C 84 % 1002,8 hPa 0,0 l/m 6,5 km/h (2 Bft) S 190 0 min 0 lux 0 W/m
12.02.2016 02:14 3,2 C 1,2 C 0,0 C 84 % 1002,8 hPa 0,0 l/m 7,0 km/h (2 Bft) S 180 0 min 0 lux 0 W/m
12.02.2016 02:19 3,2 C 1,2 C 0,0 C 84 % 1002,8 hPa 0,0 l/m 10,6 km/h (2 Bft) S22.5 175 0 min 0 lux 0 W/m
12.02.2016 02:24 3,2 C 1,4 C 0,0 C 84 % 1002,8 hPa 0,0 l/m 11,8 km/h (2 Bft) S22.5 180 0 min 0 lux 0 W/m
12.02.2016 02:29 3,2 C 1,4 C 0,0 C 84 % 1001,8 hPa 0,0 l/m 10,6 km/h (2 Bft) S22.5 190 0 min 0 lux 0 W/m
12.02.2016 02:34 3,2 C 1,5 C 0,0 C 84 % 1002,8 hPa 0,0 l/m 12,7 km/h (3 Bft) S22.5 190 0 min 0 lux 0 W/m
12.02.2016 02:39 3,2 C 1,9 C 0,0 C 84 % 1002,8 hPa 0,0 l/m 12,7 km/h (3 Bft) S22.5 190 0 min 0 lux 0 W/m
12.02.2016 02:44 3,2 C 2,1 C 0,0 C 84 % 1002,8 hPa 0,0 l/m 12,5 km/h (2 Bft) S-SW 195 0 min 0 lux 0 W/m
12.02.2016 02:49 3,3 C 2,2 C 0,0 C 84 % 1001,8 hPa 0,0 l/m 9,0 km/h (2 Bft) S 190 0 min 200 klux 0 W/m
12.02.2016 02:54 3,3 C 2,3 C 0,0 C 84 % 1001,8 hPa 0,0 l/m 8,6 km/h (2 Bft) S 185 0 min 0 lux 0 W/m
12.02.2016 02:59 3,3 C 2,1 C 0,0 C 84 % 1001,8 hPa 0,0 l/m 10,3 km/h (2 Bft) SW22.5 215 0 min 0 lux 0 W/m
12.02.2016 03:04 3,3 C 1,9 C 0,0 C 84 % 1001,8 hPa 0,0 l/m 13,6 km/h (3 Bft) S-SW22.5 195 0 min 0 lux 0 W/m
12.02.2016 03:09 3,3 C 2,0 C 0,0 C 84 % 1001,8 hPa 0,0 l/m 11,0 km/h (2 Bft) S45 185 0 min 0 lux 0 W/m
12.02.2016 03:14 3,3 C 2,0 C 0,0 C 84 % 1001,8 hPa 0,0 l/m 9,1 km/h (2 Bft) S22.5 185 0 min 0 lux 0 W/m
12.02.2016 03:19 3,3 C 2,3 C 0,0 C 84 % 1001,8 hPa 0,0 l/m 7,9 km/h (2 Bft) S 180 0 min 0 lux 0 W/m
12.02.2016 03:24 3,3 C 2,4 C 0,0 C 84 % 1001,8 hPa 0,0 l/m 7,6 km/h (2 Bft) S-SO22.5 165 0 min 0 lux 0 W/m
12.02.2016 03:29 3,3 C 2,5 C 0,0 C 84 % 1001,8 hPa 0,0 l/m 8,5 km/h (2 Bft) S22.5 170 0 min 0 lux 0 W/m
12.02.2016 03:34 3,2 C 2,5 C 0,0 C 84 % 1001,8 hPa 0,0 l/m 9,4 km/h (2 Bft) S22.5 170 0 min 0 lux 0 W/m
12.02.2016 03:39 3,2 C 2,5 C 0,0 C 84 % 1001,8 hPa 0,0 l/m 10,4 km/h (2 Bft) S22.5 175 0 min 0 lux 0 W/m
12.02.2016 03:44 3,2 C 2,5 C 0,0 C 84 % 1001,8 hPa 0,0 l/m 13,7 km/h (3 Bft) S22.5 185 0 min 0 lux 0 W/m
12.02.2016 03:49 3,2 C 2,4 C 0,0 C 84 % 1001,8 hPa 0,0 l/m 9,0 km/h (2 Bft) S22.5 185 0 min 0 lux 0 W/m
12.02.2016 03:54 3,2 C 2,4 C 0,0 C 84 % 1001,8 hPa 0,0 l/m 7,0 km/h (2 Bft) S22.5 170 0 min 0 lux 0 W/m
12.02.2016 03:59 3,2 C 2,3 C 0,0 C 84 % 1001,8 hPa 0,0 l/m 6,7 km/h (2 Bft) S-SO 155 0 min 0 lux 0 W/m
12.02.2016 04:04 3,1 C 2,3 C 0,0 C 84 % 1001,8 hPa 0,0 l/m 4,1 km/h (1 Bft) S-SO 155 0 min 0 lux 0 W/m
12.02.2016 04:09 3,1 C 2,3 C 0,0 C 84 % 1001,8 hPa 0,0 l/m 5,0 km/h (1 Bft) S-SO 155 0 min 165 lux 0 W/m
12.02.2016 04:14 3,2 C 2,3 C 0,0 C 84 % 1001,8 hPa 0,0 l/m 5,6 km/h (2 Bft) S-SO 155 0 min 0 lux 0 W/m
12.02.2016 04:19 3,2 C 2,3 C 0,0 C 84 % 1001,8 hPa 0,0 l/m 7,9 km/h (2 Bft) S-SO 155 0 min 0 lux 0 W/m
12.02.2016 04:24 3,2 C 2,4 C 0,0 C 85 % 1001,8 hPa 0,0 l/m 6,5 km/h (2 Bft) S-SO 155 0 min 0 lux 0 W/m
12.02.2016 04:29 3,2 C 2,5 C 0,0 C 85 % 1001,8 hPa 0,0 l/m 7,0 km/h (2 Bft) S-SO 155 0 min 0 lux 0 W/m
12.02.2016 04:34 3,2 C 2,5 C 0,0 C 85 % 1001,8 hPa 0,0 l/m 7,2 km/h (2 Bft) S-SO 155 0 min 0 lux 0 W/m
12.02.2016 04:39 3,3 C 2,6 C 0,0 C 85 % 1001,8 hPa 0,0 l/m 11,5 km/h (2 Bft) S-SO22.5 155 0 min 0 lux 0 W/m
12.02.2016 04:44 3,4 C 2,6 C 0,0 C 85 % 1001,8 hPa 0,0 l/m 11,8 km/h (2 Bft) S-SO45 165 0 min 0 lux 0 W/m
12.02.2016 04:49 3,4 C 2,6 C 0,0 C 85 % 1001,8 hPa 0,0 l/m 12,1 km/h (2 Bft) S22.5 170 0 min 0 lux 0 W/m
12.02.2016 04:54 3,4 C 2,7 C 0,0 C 85 % 1001,8 hPa 0,0 l/m 12,1 km/h (2 Bft) S22.5 170 0 min 0 lux 0 W/m
12.02.2016 04:59 3,5 C 2,7 C 0,0 C 85 % 1001,8 hPa 0,0 l/m 13,9 km/h (3 Bft) S-SO22.5 165 0 min 0 lux 0 W/m
12.02.2016 05:04 3,5 C 2,8 C 0,0 C 85 % 1001,8 hPa 0,0 l/m 15,5 km/h (3 Bft) S-SO22.5 160 0 min 0 lux 0 W/m
12.02.2016 05:09 3,5 C 2,8 C 0,0 C 85 % 1001,8 hPa 0,0 l/m 11,6 km/h (2 Bft) S-SO22.5 150 0 min 0 lux 0 W/m
12.02.2016 05:14 3,5 C 2,8 C 0,0 C 84 % 1001,8 hPa 0,0 l/m 12,1 km/h (2 Bft) S-SO45 165 0 min 0 lux 0 W/m
12.02.2016 05:19 3,5 C 2,8 C 0,0 C 84 % 1001,8 hPa 0,0 l/m 7,8 km/h (2 Bft) S-SO22.5 165 0 min 0 lux 0 W/m
12.02.2016 05:24 3,5 C 2,8 C 0,0 C 84 % 1001,8 hPa 0,0 l/m 13,3 km/h (3 Bft) S-SO45 160 0 min 0 lux 0 W/m
12.02.2016 05:29 3,5 C 2,8 C 0,0 C 84 % 1001,8 hPa 0,0 l/m 16,5 km/h (3 Bft) NW67.5 305 0 min 85 lux 0 W/m
12.02.2016 05:34 3,5 C 2,8 C 0,0 C 84 % 1001,8 hPa 0,0 l/m 11,0 km/h (2 Bft) S-SO22.5 155 0 min 0 lux 0 W/m
12.02.2016 05:39 3,5 C 2,8 C 0,0 C 84 % 1001,8 hPa 0,0 l/m 10,1 km/h (2 Bft) S-SO22.5 155 0 min 0 lux 0 W/m
12.02.2016 05:44 3,6 C 2,8 C 0,0 C 84 % 1000,8 hPa 0,0 l/m 5,1 km/h (1 Bft) SO45 130 0 min 0 lux 0 W/m
12.02.2016 05:49 3,5 C 2,8 C 0,0 C 84 % 1000,8 hPa 0,0 l/m 10,4 km/h (2 Bft) S-SO22.5 160 0 min 0 lux 0 W/m
12.02.2016 05:54 3,5 C 2,7 C 0,0 C 84 % 1000,8 hPa 0,0 l/m 10,5 km/h (2 Bft) S-SO22.5 160 0 min 0 lux 0 W/m
12.02.2016 05:59 3,6 C 2,7 C 0,0 C 84 % 1000,8 hPa 0,0 l/m 10,5 km/h (2 Bft) S-SO22.5 160 0 min 0 lux 0 W/m
12.02.2016 06:04 3,6 C 2,7 C 0,0 C 84 % 1000,8 hPa 0,0 l/m 8,2 km/h (2 Bft) SO22.5 145 0 min 0 lux 0 W/m
12.02.2016 06:09 3,6 C 2,7 C 0,0 C 84 % 1000,8 hPa 0,0 l/m 13,4 km/h (3 Bft) S-SO22.5 150 0 min 0 lux 0 W/m
12.02.2016 06:14 3,6 C 2,7 C 0,0 C 83 % 1000,8 hPa 0,0 l/m 0,9 km/h (0 Bft) S-SO22.5 150 0 min 0 lux 0 W/m
12.02.2016 06:19 3,5 C 2,7 C 0,0 C 84 % 1000,8 hPa 0,0 l/m 1,0 km/h (0 Bft) O22.5 100 0 min 0 lux 0 W/m
12.02.2016 06:24 3,5 C 2,7 C 0,0 C 84 % 1000,8 hPa 0,0 l/m 8,3 km/h (2 Bft) O-SO45 120 0 min 0 lux 0 W/m
12.02.2016 06:29 3,5 C 2,7 C 0,0 C 84 % 1000,8 hPa 0,0 l/m 6,5 km/h (2 Bft) SO45 140 0 min 0 lux 0 W/m
12.02.2016 06:34 3,5 C 2,7 C 0,0 C 84 % 1000,8 hPa 0,0 l/m 10,0 km/h (2 Bft) S-SO45 160 0 min 0 lux 0 W/m
12.02.2016 06:39 3,5 C 2,7 C 0,0 C 84 % 1000,8 hPa 0,0 l/m 15,3 km/h (3 Bft) S-SO22.5 150 0 min 0 lux 0 W/m
12.02.2016 06:44 3,5 C 2,6 C 0,0 C 84 % 1000,8 hPa 0,0 l/m 11,4 km/h (2 Bft) S-SO22.5 150 0 min 0 lux 0 W/m
12.02.2016 06:49 3,5 C 2,5 C 0,0 C 84 % 1000,8 hPa 0,0 l/m 1,0 km/h (0 Bft) S-SO22.5 160 0 min 0 lux 0 W/m
12.02.2016 06:54 3,5 C 2,4 C 0,0 C 84 % 1000,8 hPa 0,0 l/m 1,2 km/h (1 Bft) S22.5 175 0 min 0 lux 0 W/m
12.02.2016 06:59 3,4 C 2,3 C 0,0 C 84 % 1000,8 hPa 0,0 l/m 2,1 km/h (1 Bft) S-SO22.5 155 0 min 0 lux 0 W/m
12.02.2016 07:04 3,5 C 2,2 C 0,0 C 84 % 1000,8 hPa 0,0 l/m 10,5 km/h (2 Bft) S-SO45 160 0 min 0 lux 0 W/m
12.02.2016 07:09 3,5 C 2,2 C 0,0 C 84 % 1000,8 hPa 0,0 l/m 10,5 km/h (2 Bft) S-SO45 160 0 min 0 lux 0 W/m
12.02.2016 07:14 3,4 C 2,2 C 0,0 C 84 % 1000,8 hPa 0,0 l/m 13,2 km/h (3 Bft) S-SO22.5 155 0 min 0 lux 0 W/m
12.02.2016 07:19 3,5 C 2,3 C 0,0 C 84 % 1000,8 hPa 0,0 l/m 11,2 km/h (2 Bft) S-SO22.5 150 0 min 0 lux 0 W/m
12.02.2016 07:24 3,5 C 2,3 C 0,0 C 84 % 1000,8 hPa 0,0 l/m 6,3 km/h (2 Bft) S-SO22.5 150 0 min 0 lux 0 W/m
12.02.2016 07:29 3,5 C 2,3 C 0,0 C 83 % 1000,8 hPa 0,0 l/m 9,1 km/h (2 Bft) SO45 145 0 min 0 lux 0 W/m
12.02.2016 07:34 3,5 C 2,3 C 0,0 C 83 % 1000,8 hPa 0,0 l/m 12,7 km/h (3 Bft) S-SO22.5 150 0 min 0 lux 0 W/m
12.02.2016 07:39 3,5 C 2,2 C 0,0 C 83 % 1000,8 hPa 0,0 l/m 10,0 km/h (2 Bft) S-SO22.5 160 0 min 39 lux 0 W/m
12.02.2016 07:44 3,5 C 2,2 C 0,0 C 83 % 1000,8 hPa 0,0 l/m 12,3 km/h (2 Bft) S-SO22.5 165 0 min 78 lux 0 W/m
12.02.2016 07:49 3,5 C 2,2 C 0,0 C 83 % 1000,8 hPa 0,0 l/m 9,2 km/h (2 Bft) S22.5 170 0 min 104 lux 0 W/m
12.02.2016 07:54 3,6 C 2,1 C 0,0 C 82 % 1000,8 hPa 0,0 l/m 10,1 km/h (2 Bft) S-SO22.5 155 0 min 217 lux 0 W/m
12.02.2016 07:59 3,5 C 2,1 C 0,0 C 81 % 1000,8 hPa 0,0 l/m 10,1 km/h (2 Bft) S-SO22.5 155 0 min 317 lux 0 W/m
12.02.2016 08:03 3,6 C 2,1 C 0,0 C 81 % 1000,8 hPa 0,0 l/m 8,0 km/h (2 Bft) SO22.5 135 0 min 419 lux 3 W/m
12.02.2016 08:09 3,5 C 2,1 C 0,0 C 81 % 1000,8 hPa 0,0 l/m 16,5 km/h (3 Bft) O-SO67.5 120 0 min 925 lux 6 W/m
12.02.2016 08:14 3,6 C 2,3 C 0,0 C 81 % 1000,8 hPa 0,0 l/m 9,4 km/h (2 Bft) SO22.5 140 0 min 583 lux 4 W/m
12.02.2016 08:19 3,6 C 12,5 C 0,0 C 81 % 1014,9 hPa 0,0 l/m 1,7 km/h (1 Bft) O-SO45 115 0 min 738 lux 5 W/m
12.02.2016 08:24 3,5 C 2,4 C 0,0 C 82 % 999,8 hPa 0,0 l/m 10,8 km/h (2 Bft) SO45 135 0 min 1,14 klux 8 W/m
12.02.2016 08:29 3,5 C 2,4 C 0,0 C 82 % 999,8 hPa 0,0 l/m 6,8 km/h (2 Bft) O-SO22.5 120 0 min 1,41 klux 10 W/m
12.02.2016 08:34 3,5 C 2,5 C 0,0 C 83 % 999,8 hPa 0,0 l/m 1,2 km/h (1 Bft) S-SO22.5 155 0 min 1,70 klux 12 W/m
12.02.2016 08:39 3,5 C 2,5 C 0,0 C 83 % 999,8 hPa 0,0 l/m 1,2 km/h (1 Bft) SO22.5 140 0 min 2,28 klux 16 W/m
12.02.2016 08:44 3,5 C 2,6 C 0,0 C 83 % 999,8 hPa 0,0 l/m 2,1 km/h (1 Bft) O45 85 0 min 3,23 klux 22 W/m
12.02.2016 08:49 3,5 C 2,7 C 0,0 C 83 % 999,8 hPa 0,0 l/m 10,1 km/h (2 Bft) S-SO45 165 0 min 4,11 klux 28 W/m
12.02.2016 08:54 3,5 C 2,8 C 0,0 C 83 % 999,8 hPa 0,0 l/m 11,3 km/h (2 Bft) S-SO45 160 0 min 4,47 klux 31 W/m
12.02.2016 08:59 3,5 C 3,2 C 0,0 C 82 % 999,8 hPa 0,0 l/m 14,3 km/h (3 Bft) S-SO45 155 0 min 4,57 klux 31 W/m
12.02.2016 09:04 3,6 C 3,5 C 0,0 C 81 % 999,8 hPa 0,0 l/m 16,3 km/h (3 Bft) S-SO67.5 155 0 min 4,73 klux 32 W/m
12.02.2016 09:09 3,6 C 3,6 C 0,0 C 81 % 999,8 hPa 0,0 l/m 17,6 km/h (3 Bft) S-SO45 150 0 min 5,41 klux 37 W/m
12.02.2016 09:14 3,5 C 4,0 C 0,0 C 80 % 999,8 hPa 0,0 l/m 15,2 km/h (3 Bft) SO67.5 140 0 min 7,10 klux 49 W/m
12.02.2016 09:19 3,6 C 4,6 C 0,0 C 80 % 999,8 hPa 0,0 l/m 13,0 km/h (3 Bft) SO45 130 0 min 7,74 klux 53 W/m
12.02.2016 09:24 3,6 C 4,8 C 0,0 C 80 % 999,8 hPa 0,0 l/m 17,6 km/h (3 Bft) S-SO67.5 150 0 min 9,2 klux 63 W/m
12.02.2016 09:29 3,6 C 5,0 C 5,5 C 80 % 999,8 hPa 0,0 l/m 18,0 km/h (3 Bft) S-SO 150 5 min 200 klux 1368 W/m
12.02.2016 09:34 3,7 C 5,6 C 0,0 C 79 % 999,8 hPa 0,0 l/m 20,0 km/h (4 Bft) S-SO45 160 0 min 10,0 klux 68 W/m
12.02.2016 09:39 3,7 C 5,9 C 0,0 C 79 % 999,8 hPa 0,0 l/m 21,0 km/h (4 Bft) S-SO45 150 0 min 9,5 klux 65 W/m
12.02.2016 09:44 3,7 C 6,0 C 0,0 C 79 % 999,8 hPa 0,0 l/m 13,8 km/h (3 Bft) S-SO45 160 0 min 10,3 klux 70 W/m
12.02.2016 09:49 3,8 C 6,6 C 0,0 C 79 % 999,8 hPa 0,0 l/m 10,3 km/h (2 Bft) S-SO45 155 0 min 14,2 klux 97 W/m
12.02.2016 09:54 3,9 C 6,6 C 0,0 C 78 % 999,8 hPa 0,0 l/m 18,6 km/h (3 Bft) S-SO67.5 150 0 min 12,9 klux 88 W/m
12.02.2016 09:59 3,9 C 6,5 C 0,0 C 78 % 999,8 hPa 0,0 l/m 21,7 km/h (4 Bft) S-SO45 150 0 min 10,4 klux 71 W/m
12.02.2016 10:04 3,8 C 7,1 C 0,0 C 77 % 999,8 hPa 0,0 l/m 17,1 km/h (3 Bft) S-SO45 160 5 min 27,1 klux 185 W/m
12.02.2016 10:09 3,8 C 8,3 C 0,0 C 77 % 999,8 hPa 0,0 l/m 14,0 km/h (3 Bft) S22.5 170 5 min 31,3 klux 214 W/m
12.02.2016 10:14 4,3 C 9,9 C 0,0 C 77 % 999,8 hPa 0,0 l/m 22,1 km/h (4 Bft) S-SO45 155 5 min 31,7 klux 217 W/m
12.02.2016 10:19 4,7 C 11,6 C 0,0 C 75 % 999,8 hPa 0,0 l/m 20,2 km/h (4 Bft) S-SO67.5 150 5 min 32,3 klux 221 W/m
12.02.2016 10:24 4,8 C 12,7 C 0,0 C 73 % 999,8 hPa 0,0 l/m 25,6 km/h (4 Bft) S67.5 170 5 min 33,7 klux 231 W/m
12.02.2016 10:29 4,9 C 13,8 C 0,0 C 73 % 998,8 hPa 0,0 l/m 23,8 km/h (4 Bft) S-SO22.5 160 5 min 34,8 klux 238 W/m
12.02.2016 10:34 5,1 C 14,2 C 0,0 C 72 % 998,8 hPa 0,0 l/m 19,1 km/h (3 Bft) S-SO45 160 5 min 35,5 klux 243 W/m
12.02.2016 10:39 5,3 C 15,1 C 0,0 C 72 % 998,8 hPa 0,0 l/m 17,2 km/h (3 Bft) S-SO22.5 160 5 min 36,0 klux 246 W/m
12.02.2016 10:44 5,4 C 15,7 C 0,0 C 72 % 998,8 hPa 0,0 l/m 24,0 km/h (4 Bft) S-SO22.5 150 5 min 36,7 klux 251 W/m
12.02.2016 10:49 5,4 C 15,7 C 0,0 C 72 % 998,8 hPa 0,0 l/m 20,8 km/h (4 Bft) S-SO45 160 5 min 200 klux 1368 W/m
12.02.2016 10:54 5,6 C 16,9 C 0,0 C 71 % 998,8 hPa 0,0 l/m 20,5 km/h (4 Bft) S-SO22.5 160 5 min 37,5 klux 257 W/m
12.02.2016 10:59 5,9 C 17,5 C 0,0 C 70 % 998,8 hPa 0,0 l/m 14,2 km/h (3 Bft) SO67.5 140 5 min 38,1 klux 261 W/m
12.02.2016 11:04 6,0 C 18,1 C 0,0 C 70 % 998,8 hPa 0,0 l/m 14,0 km/h (3 Bft) S-SO67.5 150 5 min 39,1 klux 267 W/m
12.02.2016 10:44 0,0 C 18,1 C 0,0 C 70 % 998,9 hPa 0,0 l/m 0,0 km/h (0 Bft) N 360 0 min 0 lux 0 W/m
12.02.2016 10:49 0,0 C 18,1 C 0,0 C 70 % 998,9 hPa 0,0 l/m 0,0 km/h (0 Bft) N 360 0 min 0 lux 0 W/m
12.02.2016 10:54 5,7 C 16,9 C 0,0 C 71 % 998,8 hPa 0,0 l/m 20,5 km/h (4 Bft) S-SO22.5 160 5 min 37,5 klux 257 W/m
12.02.2016 10:59 5,9 C 17,5 C 0,0 C 70 % 998,8 hPa 0,0 l/m 20,5 km/h (4 Bft) S-SO22.5 160 5 min 38,1 klux 261 W/m
12.02.2016 11:04 6,0 C 18,1 C 0,0 C 70 % 998,8 hPa 0,0 l/m 20,5 km/h (4 Bft) S-SO22.5 160 5 min 39,1 klux 267 W/m
12.02.2016 11:09 6,0 C 18,5 C 0,0 C 69 % 998,8 hPa 0,0 l/m 22,5 km/h (4 Bft) S-SO22.5 160 5 min 39,2 klux 268 W/m
12.02.2016 11:13 6,0 C 18,6 C 0,0 C 68 % 998,8 hPa 0,0 l/m 22,4 km/h (4 Bft) S45 175 4 min 39,9 klux 273 W/m
12.02.2016 11:18 6,0 C 18,6 C 0,0 C 68 % 998,8 hPa 0,0 l/m 24,5 km/h (4 Bft) S-SO22.5 165 5 min 40,5 klux 277 W/m
12.02.2016 11:24 6,0 C 18,8 C 0,0 C 68 % 998,8 hPa 0,0 l/m 20,8 km/h (4 Bft) S-SO45 165 6 min 41,0 klux 280 W/m
12.02.2016 11:29 6,3 C 19,4 C 0,0 C 68 % 998,8 hPa 0,0 l/m 20,8 km/h (4 Bft) S-SO45 165 5 min 41,8 klux 286 W/m
12.02.2016 11:34 6,3 C 19,9 C 0,0 C 67 % 998,8 hPa 0,0 l/m 18,6 km/h (3 Bft) S-SO22.5 155 0 min 30,0 klux 205 W/m
12.02.2016 11:39 6,4 C 20,3 C 0,0 C 67 % 998,8 hPa 0,0 l/m 16,5 km/h (3 Bft) SO45 140 5 min 42,1 klux 288 W/m
12.02.2016 11:43 6,4 C 20,7 C 0,0 C 67 % 998,8 hPa 0,0 l/m 18,4 km/h (3 Bft) S-SO45 165 4 min 42,8 klux 293 W/m
12.02.2016 11:48 6,3 C 20,2 C 0,0 C 66 % 998,8 hPa 0,0 l/m 24,7 km/h (4 Bft) S-SO22.5 165 5 min 43,5 klux 298 W/m
12.02.2016 11:54 6,4 C 20,1 C 0,0 C 66 % 998,8 hPa 0,0 l/m 25,0 km/h (4 Bft) S-SO22.5 165 6 min 44,3 klux 303 W/m
12.02.2016 11:59 6,4 C 20,7 C 0,0 C 66 % 998,8 hPa 0,0 l/m 17,3 km/h (3 Bft) S-SO22.5 160 5 min 43,6 klux 298 W/m
12.02.2016 12:03 6,6 C 21,3 C 0,0 C 66 % 998,8 hPa 0,0 l/m 14,3 km/h (3 Bft) S-SO45 165 4 min 44,7 klux 306 W/m
12.02.2016 12:09 6,6 C 21,5 C 0,0 C 66 % 997,8 hPa 0,0 l/m 22,5 km/h (4 Bft) S-SO22.5 165 6 min 44,9 klux 307 W/m
12.02.2016 12:14 6,6 C 20,6 C 0,0 C 66 % 997,8 hPa 0,0 l/m 19,9 km/h (4 Bft) S-SO45 165 5 min 45,9 klux 314 W/m
12.02.2016 12:19 6,4 C 18,6 C 0,0 C 66 % 997,8 hPa 0,0 l/m 18,5 km/h (3 Bft) S-SO67.5 155 5 min 51,1 klux 350 W/m
12.02.2016 12:24 6,5 C 20,8 C 0,0 C 66 % 997,8 hPa 0,0 l/m 18,3 km/h (3 Bft) S45 180 5 min 50,3 klux 344 W/m
12.02.2016 12:29 7,0 C 22,5 C 0,0 C 66 % 997,8 hPa 0,0 l/m 21,7 km/h (4 Bft) S45 175 5 min 48,4 klux 331 W/m
12.02.2016 12:33 6,8 C 22,5 C 0,0 C 65 % 997,8 hPa 0,0 l/m 22,4 km/h (4 Bft) S-SO22.5 165 4 min 46,8 klux 320 W/m
12.02.2016 12:39 6,8 C 22,4 C 0,0 C 65 % 997,8 hPa 0,0 l/m 26,0 km/h (4 Bft) S-SO22.5 165 6 min 51,0 klux 349 W/m
12.02.2016 12:44 6,9 C 22,5 C 0,0 C 65 % 997,8 hPa 0,0 l/m 17,3 km/h (3 Bft) S-SO67.5 165 5 min 48,4 klux 331 W/m
12.02.2016 12:49 6,8 C 22,2 C 0,0 C 65 % 997,8 hPa 0,0 l/m 23,5 km/h (4 Bft) S-SO67.5 160 5 min 50,6 klux 346 W/m
12.02.2016 12:54 6,9 C 22,6 C 0,0 C 65 % 997,8 hPa 0,0 l/m 26,1 km/h (4 Bft) S-SO45 165 5 min 50,2 klux 343 W/m
12.02.2016 12:59 6,9 C 22,9 C 0,0 C 65 % 997,8 hPa 0,0 l/m 20,0 km/h (4 Bft) S-SO45 165 5 min 51,0 klux 349 W/m
12.02.2016 13:04 6,6 C 19,3 C 0,0 C 65 % 997,8 hPa 0,0 l/m 21,6 km/h (4 Bft) S-SO67.5 160 0 min 15,8 klux 108 W/m
12.02.2016 13:09 6,6 C 18,6 C 0,0 C 66 % 997,8 hPa 0,0 l/m 18,5 km/h (3 Bft) S-SO45 160 5 min 35,2 klux 241 W/m
12.02.2016 13:14 6,6 C 17,4 C 0,0 C 65 % 997,8 hPa 0,0 l/m 26,7 km/h (4 Bft) S-SO45 160 5 min 39,6 klux 271 W/m
12.02.2016 13:19 6,4 C 17,2 C 0,0 C 66 % 997,8 hPa 0,0 l/m 18,0 km/h (3 Bft) S-SO67.5 165 5 min 44,0 klux 301 W/m
12.02.2016 13:24 6,4 C 16,2 C 0,0 C 66 % 996,8 hPa 0,0 l/m 16,1 km/h (3 Bft) S45 170 0 min 17,2 klux 118 W/m
12.02.2016 13:29 6,4 C 15,7 C 0,0 C 66 % 996,8 hPa 0,0 l/m 16,3 km/h (3 Bft) S-SO67.5 165 0 min 28,5 klux 195 W/m
12.02.2016 13:34 6,4 C 17,5 C 0,0 C 66 % 996,8 hPa 0,0 l/m 20,7 km/h (4 Bft) SO67.5 130 5 min 41,7 klux 285 W/m
12.02.2016 13:38 6,7 C 19,9 C 0,0 C 64 % 996,8 hPa 0,0 l/m 19,6 km/h (3 Bft) S-SO45 165 4 min 53,5 klux 366 W/m
12.02.2016 13:43 6,7 C 18,1 C 0,0 C 65 % 996,8 hPa 0,0 l/m 13,8 km/h (3 Bft) S-SO45 150 0 min 15,8 klux 108 W/m
12.02.2016 13:49 6,5 C 16,8 C 5,5 C 65 % 996,8 hPa 0,0 l/m 17,1 km/h (3 Bft) S-SO45 165 6 min 45,7 klux 313 W/m
12.02.2016 13:53 6,3 C 14,8 C 5,5 C 64 % 996,8 hPa 0,0 l/m 17,1 km/h (3 Bft) S-SO45 165 0 min 14,3 klux 98 W/m
12.02.2016 13:59 6,1 C 12,9 C 5,5 C 66 % 996,8 hPa 0,0 l/m 17,6 km/h (3 Bft) SO67.5 135 0 min 20,7 klux 142 W/m
12.02.2016 14:03 6,0 C 12,0 C 5,5 C 66 % 996,8 hPa 0,0 l/m 11,3 km/h (2 Bft) SO67.5 135 0 min 15,4 klux 105 W/m
12.02.2016 14:09 5,8 C 12,0 C 5,5 C 66 % 996,8 hPa 0,0 l/m 18,2 km/h (3 Bft) SO67.5 140 0 min 17,9 klux 122 W/m
12.02.2016 14:14 6,0 C 11,7 C 5,5 C 66 % 995,8 hPa 0,0 l/m 13,7 km/h (3 Bft) SO45 140 5 min 34,4 klux 235 W/m
12.02.2016 14:19 6,0 C 13,9 C 5,5 C 66 % 995,8 hPa 0,0 l/m 15,3 km/h (3 Bft) S22.5 170 5 min 39,1 klux 267 W/m
12.02.2016 14:24 6,5 C 15,6 C 5,5 C 64 % 995,8 hPa 0,0 l/m 14,5 km/h (3 Bft) S22.5 170 5 min 40,2 klux 275 W/m
12.02.2016 14:28 6,5 C 15,2 C 5,5 C 64 % 995,8 hPa 0,0 l/m 14,5 km/h (3 Bft) S22.5 170 4 min 36,7 klux 251 W/m
12.02.2016 14:33 6,8 C 17,7 C 5,5 C 63 % 994,8 hPa 0,0 l/m 11,5 km/h (2 Bft) SO67.5 135 5 min 44,7 klux 306 W/m
12.02.2016 14:39 6,6 C 16,7 C 5,5 C 62 % 994,8 hPa 0,0 l/m 19,8 km/h (3 Bft) S-SO45 165 0 min 17,4 klux 119 W/m
12.02.2016 14:44 6,4 C 15,4 C 5,5 C 63 % 994,8 hPa 0,0 l/m 20,6 km/h (4 Bft) S-SO45 155 5 min 39,8 klux 272 W/m
12.02.2016 14:49 6,8 C 17,7 C 5,5 C 63 % 994,8 hPa 0,0 l/m 16,7 km/h (3 Bft) S-SO22.5 160 0 min 24,6 klux 168 W/m
12.02.2016 14:54 6,7 C 15,4 C 5,5 C 62 % 994,8 hPa 0,0 l/m 15,8 km/h (3 Bft) SO45 145 0 min 16,0 klux 109 W/m
12.02.2016 14:58 6,4 C 14,3 C 5,5 C 64 % 994,8 hPa 0,0 l/m 12,0 km/h (2 Bft) O-SO45 120 4 min 36,6 klux 250 W/m
12.02.2016 15:04 6,1 C 13,3 C 5,5 C 63 % 994,8 hPa 0,0 l/m 12,0 km/h (2 Bft) O-SO45 120 6 min 36,6 klux 250 W/m
12.02.2016 15:09 6,0 C 11,9 C 5,5 C 64 % 994,8 hPa 0,0 l/m 15,5 km/h (3 Bft) SO67.5 125 0 min 14,3 klux 98 W/m
12.02.2016 15:14 6,0 C 12,0 C 5,5 C 64 % 994,8 hPa 0,0 l/m 12,9 km/h (3 Bft) O-SO67.5 115 5 min 42,1 klux 288 W/m
12.02.2016 15:19 6,2 C 16,5 C 5,5 C 65 % 994,8 hPa 0,0 l/m 12,0 km/h (2 Bft) S-SO67.5 150 5 min 42,3 klux 289 W/m
12.02.2016 15:23 6,2 C 18,1 C 5,5 C 65 % 994,8 hPa 0,0 l/m 16,1 km/h (3 Bft) O-SO67.5 115 0 min 13,4 klux 92 W/m
12.02.2016 15:29 6,5 C 18,1 C 5,5 C 62 % 994,8 hPa 0,0 l/m 16,1 km/h (3 Bft) O-SO67.5 115 0 min 11,9 klux 81 W/m
12.02.2016 15:34 6,2 C 18,1 C 5,5 C 63 % 994,8 hPa 0,0 l/m 15,7 km/h (3 Bft) O-SO67.5 110 0 min 10,6 klux 73 W/m
12.02.2016 15:39 6,1 C 16,6 C 5,5 C 62 % 994,8 hPa 0,0 l/m 10,8 km/h (2 Bft) SO67.5 125 0 min 12,7 klux 87 W/m
12.02.2016 15:44 6,0 C 16,5 C 5,5 C 62 % 994,8 hPa 0,0 l/m 18,0 km/h (3 Bft) O-SO67.5 110 0 min 11,5 klux 79 W/m
12.02.2016 15:49 6,0 C 14,7 C 6,8 C 62 % 994,8 hPa 0,0 l/m 16,1 km/h (3 Bft) SO45 130 0 min 14,6 klux 100 W/m
12.02.2016 15:53 6,0 C 16,1 C 6,8 C 62 % 994,8 hPa 0,0 l/m 15,0 km/h (3 Bft) SO22.5 125 0 min 10,9 klux 75 W/m
12.02.2016 15:59 6,2 C 15,4 C 6,8 C 61 % 994,8 hPa 0,0 l/m 13,2 km/h (3 Bft) SO67.5 140 0 min 8,08 klux 55 W/m
12.02.2016 16:04 6,2 C 15,4 C 6,4 C 61 % 994,8 hPa 0,0 l/m 11,7 km/h (2 Bft) O67.5 95 0 min 7,17 klux 49 W/m
12.02.2016 16:09 5,6 C 10,3 C 6,3 C 63 % 994,8 hPa 0,0 l/m 9,6 km/h (2 Bft) SO45 125 0 min 8,11 klux 55 W/m
12.02.2016 16:14 5,6 C 15,4 C 6,3 C 63 % 994,8 hPa 0,0 l/m 14,0 km/h (3 Bft) O67.5 100 0 min 8,64 klux 59 W/m
12.02.2016 16:18 5,5 C 8,0 C 6,1 C 63 % 994,8 hPa 0,0 l/m 13,4 km/h (3 Bft) SO45 130 0 min 7,72 klux 53 W/m
12.02.2016 16:24 5,4 C 7,1 C 6,3 C 64 % 994,8 hPa 0,0 l/m 13,4 km/h (3 Bft) SO45 130 0 min 8,43 klux 58 W/m
12.02.2016 16:28 5,4 C 7,2 C 6,6 C 64 % 994,8 hPa 0,0 l/m 7,7 km/h (2 Bft) O-SO67.5 110 0 min 8,01 klux 55 W/m
12.02.2016 16:33 5,5 C 6,8 C 6,6 C 65 % 994,8 hPa 0,0 l/m 12,6 km/h (3 Bft) SO67.5 135 0 min 4,52 klux 31 W/m
12.02.2016 16:39 5,6 C 6,6 C 6,3 C 65 % 994,8 hPa 0,0 l/m 15,0 km/h (3 Bft) SO45 135 0 min 3,49 klux 24 W/m
12.02.2016 16:44 5,5 C 6,2 C 6,1 C 65 % 994,8 hPa 0,0 l/m 11,4 km/h (2 Bft) SO67.5 130 0 min 3,33 klux 23 W/m
12.02.2016 16:48 5,5 C 5,8 C 5,8 C 65 % 994,8 hPa 0,0 l/m 19,8 km/h (3 Bft) SO45 135 0 min 3,60 klux 25 W/m
12.02.2016 16:54 5,3 C 5,8 C 5,8 C 64 % 994,8 hPa 0,0 l/m 8,5 km/h (2 Bft) O-SO45 115 0 min 3,35 klux 23 W/m
12.02.2016 16:58 5,3 C 5,6 C 5,8 C 64 % 994,8 hPa 0,0 l/m 10,1 km/h (2 Bft) S-SO67.5 150 0 min 3,36 klux 23 W/m
12.02.2016 17:04 5,3 C 5,3 C 5,7 C 65 % 994,8 hPa 0,0 l/m 10,0 km/h (2 Bft) SO67.5 135 0 min 2,56 klux 18 W/m
12.02.2016 17:09 5,2 C 5,3 C 5,7 C 64 % 994,8 hPa 0,0 l/m 14,7 km/h (3 Bft) SO67.5 135 0 min 2,30 klux 16 W/m
12.02.2016 17:13 5,2 C 5,1 C 5,5 C 65 % 994,8 hPa 0,0 l/m 8,7 km/h (2 Bft) SO22.5 125 0 min 1,64 klux 11 W/m
12.02.2016 17:18 5,2 C 4,8 C 5,5 C 65 % 994,8 hPa 0,0 l/m 9,3 km/h (2 Bft) O45 100 0 min 992 lux 7 W/m
12.02.2016 17:24 5,2 C 4,6 C 5,5 C 65 % 994,8 hPa 0,0 l/m 10,2 km/h (2 Bft) O-SO45 110 0 min 884 lux 6 W/m
12.02.2016 17:29 5,2 C 4,4 C 5,4 C 65 % 994,8 hPa 0,0 l/m 11,4 km/h (2 Bft) O-SO45 110 0 min 705 lux 5 W/m
12.02.2016 17:34 5,2 C 4,3 C 5,4 C 65 % 994,8 hPa 0,0 l/m 9,2 km/h (2 Bft) O-SO22.5 115 0 min 519 lux 4 W/m
12.02.2016 17:38 5,1 C 4,2 C 5,4 C 65 % 994,8 hPa 0,0 l/m 8,4 km/h (2 Bft) O45 95 0 min 281 lux 0 W/m
12.02.2016 17:44 5,2 C 4,1 C 5,4 C 65 % 994,8 hPa 0,0 l/m 1,7 km/h (1 Bft) O45 100 0 min 283 lux 0 W/m
12.02.2016 17:49 4,9 C 3,5 C 4,9 C 66 % 994,8 hPa 0,0 l/m 6,6 km/h (2 Bft) O-SO 105 0 min 287 lux 0 W/m
12.02.2016 17:54 4,9 C 2,5 C 4,6 C 66 % 994,8 hPa 0,0 l/m 5,1 km/h (1 Bft) O22.5 100 0 min 233 lux 0 W/m
12.02.2016 17:59 4,7 C 1,9 C 4,4 C 67 % 994,8 hPa 0,0 l/m 5,1 km/h (1 Bft) O22.5 100 0 min 127 lux 0 W/m
12.02.2016 18:04 4,5 C 1,0 C 3,9 C 67 % 994,8 hPa 0,0 l/m 0,1 km/h (0 Bft) O 100 0 min 64 lux 0 W/m
12.02.2016 18:09 4,3 C 0,3 C 3,9 C 67 % 994,8 hPa 0,0 l/m 0,0 km/h (0 Bft) O 100 0 min 30 lux 0 W/m
12.02.2016 18:14 4,3 C 0,1 C 3,6 C 68 % 994,8 hPa 0,0 l/m 0,0 km/h (0 Bft) O 100 0 min 9 lux 0 W/m
12.02.2016 18:14 4,3 C 15,4 C 3,6 C 68 % 994,8 hPa 0,0 l/m 0,0 km/h (0 Bft) O 100 0 min 9 lux 0 W/m
12.02.2016 18:19 4,0 C -0,3 C 3,7 C 68 % 994,8 hPa 0,0 l/m 0,7 km/h (0 Bft) O-SO 105 0 min 6 lux 0 W/m
12.02.2016 18:24 4,0 C -0,3 C 3,6 C 68 % 994,8 hPa 0,0 l/m 0,9 km/h (0 Bft) O 80 0 min 1 lux 0 W/m
12.02.2016 18:29 3,9 C -0,3 C 3,2 C 68 % 994,8 hPa 0,0 l/m 0,3 km/h (0 Bft) O 80 0 min 0 lux 0 W/m
12.02.2016 18:34 3,9 C -0,3 C 3,1 C 69 % 994,8 hPa 0,0 l/m 0,0 km/h (0 Bft) O 80 0 min 0 lux 0 W/m
12.02.2016 18:39 3,8 C -0,2 C 3,2 C 69 % 994,8 hPa 0,0 l/m 0,0 km/h (0 Bft) O 80 0 min 0 lux 0 W/m
12.02.2016 18:44 3,7 C 0,0 C 3,4 C 69 % 994,8 hPa 0,0 l/m 0,6 km/h (0 Bft) O 85 0 min 0 lux 0 W/m
12.02.2016 18:49 3,7 C 0,2 C 3,5 C 69 % 994,8 hPa 0,0 l/m 1,2 km/h (1 Bft) O22.5 90 0 min 0 lux 0 W/m
12.02.2016 18:54 3,7 C 0,4 C 3,5 C 69 % 994,8 hPa 0,0 l/m 3,6 km/h (1 Bft) O 90 0 min 0 lux 0 W/m
12.02.2016 18:59 3,7 C 0,5 C 3,4 C 69 % 994,8 hPa 0,0 l/m 1,3 km/h (1 Bft) O 95 0 min 0 lux 0 W/m
12.02.2016 19:04 3,7 C 0,8 C 3,8 C 70 % 994,8 hPa 0,0 l/m 0,3 km/h (0 Bft) O 95 0 min 0 lux 0 W/m
12.02.2016 19:09 3,7 C 0,8 C 3,7 C 69 % 994,8 hPa 0,0 l/m 0,0 km/h (0 Bft) O 90 0 min 0 lux 0 W/m
12.02.2016 19:14 3,7 C 0,3 C 3,2 C 69 % 994,8 hPa 0,0 l/m 1,4 km/h (1 Bft) O-SO 105 0 min 0 lux 0 W/m
12.02.2016 19:19 3,6 C -0,3 C 3,1 C 70 % 994,8 hPa 0,0 l/m 0,5 km/h (0 Bft) O-SO 105 0 min 0 lux 0 W/m
12.02.2016 19:24 3,5 C -0,4 C 2,7 C 69 % 994,8 hPa 0,0 l/m 3,9 km/h (1 Bft) O 100 0 min 0 lux 0 W/m
12.02.2016 19:29 3,5 C -0,8 C 2,6 C 69 % 994,8 hPa 0,0 l/m 0,1 km/h (0 Bft) O 100 0 min 0 lux 0 W/m
12.02.2016 19:34 3,4 C -0,9 C 2,5 C 69 % 994,8 hPa 0,0 l/m 9,4 km/h (2 Bft) O22.5 90 0 min 0 lux 0 W/m
12.02.2016 19:39 3,4 C -0,9 C 2,5 C 70 % 994,8 hPa 0,0 l/m 8,5 km/h (2 Bft) O22.5 85 0 min 0 lux 0 W/m
12.02.2016 19:43 3,5 C -0,9 C 2,6 C 69 % 994,8 hPa 0,0 l/m 8,7 km/h (2 Bft) O22.5 90 0 min 0 lux 0 W/m
12.02.2016 19:49 3,5 C -0,5 C 3,0 C 69 % 994,8 hPa 0,0 l/m 10,0 km/h (2 Bft) O22.5 90 0 min 0 lux 0 W/m
12.02.2016 19:54 3,6 C -0,5 C 3,1 C 69 % 994,8 hPa 0,0 l/m 10,5 km/h (2 Bft) O22.5 95 0 min 0 lux 0 W/m
12.02.2016 19:59 3,6 C -0,5 C 3,1 C 69 % 994,8 hPa 0,0 l/m 10,3 km/h (2 Bft) O22.5 90 0 min 0 lux 0 W/m
12.02.2016 20:04 3,6 C -0,4 C 3,1 C 69 % 994,8 hPa 0,0 l/m 12,8 km/h (3 Bft) O-SO22.5 105 0 min 0 lux 0 W/m
12.02.2016 20:09 3,5 C -0,4 C 3,1 C 69 % 994,8 hPa 0,0 l/m 11,8 km/h (2 Bft) O22.5 85 0 min 0 lux 0 W/m
12.02.2016 20:14 3,5 C -0,4 C 3,0 C 69 % 994,8 hPa 0,0 l/m 12,3 km/h (2 Bft) O22.5 80 0 min 0 lux 0 W/m
12.02.2016 20:19 3,5 C -0,4 C 3,0 C 69 % 994,8 hPa 0,0 l/m 10,5 km/h (2 Bft) O22.5 80 0 min 0 lux 0 W/m
12.02.2016 20:23 3,5 C -0,4 C 2,9 C 68 % 994,8 hPa 0,0 l/m 11,3 km/h (2 Bft) O22.5 80 0 min 0 lux 0 W/m
12.02.2016 20:29 3,5 C -0,4 C 2,8 C 68 % 994,8 hPa 0,0 l/m 11,3 km/h (2 Bft) O-NO22.5 75 0 min 0 lux 0 W/m
12.02.2016 20:34 3,5 C -0,3 C 2,9 C 68 % 994,8 hPa 0,0 l/m 11,5 km/h (2 Bft) O22.5 85 0 min 0 lux 0 W/m
12.02.2016 20:39 3,5 C -0,3 C 3,0 C 68 % 994,8 hPa 0,0 l/m 17,0 km/h (3 Bft) O45 85 0 min 0 lux 0 W/m
12.02.2016 20:44 3,4 C -0,3 C 3,0 C 68 % 994,8 hPa 0,0 l/m 11,4 km/h (2 Bft) O22.5 90 0 min 0 lux 0 W/m
12.02.2016 20:48 3,3 C -0,5 C 3,0 C 69 % 994,8 hPa 0,0 l/m 14,3 km/h (3 Bft) O22.5 80 0 min 0 lux 0 W/m
12.02.2016 20:54 3,3 C -0,4 C 2,9 C 69 % 994,8 hPa 0,0 l/m 13,8 km/h (3 Bft) O45 90 0 min 0 lux 0 W/m
12.02.2016 20:59 3,3 C -0,4 C 3,0 C 69 % 994,8 hPa 0,0 l/m 14,6 km/h (3 Bft) O45 85 0 min 0 lux 0 W/m
12.02.2016 21:03 3,3 C -0,4 C 2,9 C 69 % 994,8 hPa 0,0 l/m 14,8 km/h (3 Bft) O22.5 85 0 min 0 lux 0 W/m
12.02.2016 21:08 3,3 C -0,4 C 3,0 C 69 % 994,8 hPa 0,0 l/m 16,3 km/h (3 Bft) O22.5 85 0 min 0 lux 0 W/m
12.02.2016 21:14 3,3 C -0,3 C 2,9 C 69 % 994,8 hPa 0,0 l/m 15,8 km/h (3 Bft) O22.5 80 0 min 0 lux 0 W/m
12.02.2016 21:19 3,3 C -0,3 C 2,9 C 69 % 994,8 hPa 0,0 l/m 18,9 km/h (3 Bft) O-NO45 70 0 min 0 lux 0 W/m
12.02.2016 21:24 3,3 C -0,2 C 2,9 C 69 % 994,8 hPa 0,0 l/m 22,8 km/h (4 Bft) O45 80 0 min 0 lux 0 W/m
12.02.2016 21:28 3,3 C -0,1 C 3,0 C 69 % 994,8 hPa 0,0 l/m 21,8 km/h (4 Bft) O45 85 0 min 0 lux 0 W/m
12.02.2016 21:33 3,4 C -0,1 C 3,1 C 69 % 994,8 hPa 0,0 l/m 23,6 km/h (4 Bft) O45 80 0 min 0 lux 0 W/m
12.02.2016 21:39 3,5 C 0,1 C 3,1 C 68 % 994,8 hPa 0,0 l/m 24,6 km/h (4 Bft) O45 85 0 min 0 lux 0 W/m
12.02.2016 21:44 3,4 C 0,2 C 3,2 C 68 % 994,8 hPa 0,0 l/m 24,6 km/h (4 Bft) O45 85 0 min 0 lux 0 W/m
12.02.2016 21:49 3,3 C 0,0 C 3,1 C 68 % 994,8 hPa 0,0 l/m 23,4 km/h (4 Bft) O45 80 0 min 0 lux 0 W/m
12.02.2016 21:53 3,3 C 0,0 C 3,1 C 68 % 994,8 hPa 0,0 l/m 16,8 km/h (3 Bft) O-NO45 75 0 min 0 lux 0 W/m
12.02.2016 21:58 3,3 C 0,0 C 3,1 C 68 % 994,8 hPa 0,0 l/m 23,0 km/h (4 Bft) O-NO22.5 75 0 min 0 lux 0 W/m
12.02.2016 22:04 3,2 C 0,0 C 3,1 C 69 % 994,8 hPa 0,0 l/m 20,7 km/h (4 Bft) O-NO22.5 75 0 min 0 lux 0 W/m
12.02.2016 22:09 3,2 C 0,1 C 3,1 C 69 % 994,8 hPa 0,0 l/m 20,7 km/h (4 Bft) O-NO22.5 75 0 min 0 lux 0 W/m
12.02.2016 22:13 3,2 C 0,1 C 3,1 C 69 % 994,8 hPa 0,0 l/m 18,0 km/h (3 Bft) O-NO45 70 0 min 0 lux 0 W/m
12.02.2016 22:19 3,2 C 0,4 C 3,2 C 69 % 994,8 hPa 0,0 l/m 20,1 km/h (4 Bft) O45 80 0 min 0 lux 0 W/m
12.02.2016 22:24 3,1 C 0,4 C 3,2 C 69 % 994,8 hPa 0,0 l/m 20,3 km/h (4 Bft) O-NO45 70 0 min 0 lux 0 W/m
12.02.2016 22:29 3,1 C 0,7 C 3,2 C 69 % 994,8 hPa 0,0 l/m 23,0 km/h (4 Bft) O-NO22.5 75 0 min 0 lux 0 W/m
12.02.2016 22:34 3,1 C 0,7 C 3,1 C 69 % 994,8 hPa 0,0 l/m 25,5 km/h (4 Bft) O22.5 80 0 min 0 lux 0 W/m
12.02.2016 22:38 3,0 C 0,3 C 2,8 C 70 % 994,8 hPa 0,0 l/m 25,5 km/h (4 Bft) O22.5 80 0 min 0 lux 0 W/m
12.02.2016 22:44 3,0 C 0,1 C 2,8 C 70 % 994,8 hPa 0,0 l/m 22,1 km/h (4 Bft) O-NO45 75 0 min 0 lux 0 W/m
12.02.2016 22:49 3,0 C -0,1 C 2,7 C 70 % 994,8 hPa 0,0 l/m 19,9 km/h (4 Bft) O-NO45 75 0 min 0 lux 0 W/m
12.02.2016 22:54 2,9 C -0,2 C 2,7 C 70 % 994,8 hPa 0,0 l/m 21,2 km/h (4 Bft) O22.5 80 0 min 0 lux 0 W/m
12.02.2016 22:59 2,8 C -0,3 C 2,7 C 71 % 994,8 hPa 0,0 l/m 23,4 km/h (4 Bft) O-NO45 75 0 min 0 lux 0 W/m
12.02.2016 23:04 2,8 C -0,4 C 2,6 C 71 % 994,8 hPa 0,0 l/m 18,6 km/h (3 Bft) O-NO22.5 75 0 min 0 lux 0 W/m
12.02.2016 23:09 2,8 C -0,5 C 2,6 C 71 % 994,8 hPa 0,0 l/m 23,2 km/h (4 Bft) O-NO67.5 75 0 min 0 lux 0 W/m
12.02.2016 23:14 2,7 C -0,4 C 2,6 C 71 % 994,8 hPa 0,0 l/m 21,3 km/h (4 Bft) O22.5 80 0 min 0 lux 0 W/m
12.02.2016 23:18 2,7 C -0,3 C 2,6 C 71 % 994,8 hPa 0,0 l/m 24,8 km/h (4 Bft) O-NO45 75 0 min 0 lux 0 W/m
12.02.2016 23:23 2,7 C -0,4 C 2,5 C 71 % 994,8 hPa 0,0 l/m 26,1 km/h (4 Bft) O45 80 0 min 0 lux 0 W/m
12.02.2016 23:29 2,7 C -0,4 C 2,4 C 71 % 994,8 hPa 0,0 l/m 19,8 km/h (3 Bft) O22.5 85 0 min 0 lux 0 W/m
12.02.2016 23:34 2,7 C -0,6 C 2,3 C 71 % 994,8 hPa 0,0 l/m 20,9 km/h (4 Bft) O22.5 85 0 min 0 lux 0 W/m
12.02.2016 23:39 2,6 C -0,8 C 2,3 C 71 % 994,8 hPa 0,0 l/m 22,0 km/h (4 Bft) O22.5 85 0 min 0 lux 0 W/m
12.02.2016 23:44 2,6 C -0,9 C 2,3 C 72 % 994,8 hPa 0,0 l/m 24,9 km/h (4 Bft) O45 85 0 min 0 lux 0 W/m
12.02.2016 23:48 2,6 C -0,8 C 2,3 C 72 % 994,8 hPa 0,0 l/m 19,6 km/h (3 Bft) O-NO22.5 75 0 min 0 lux 0 W/m
12.02.2016 23:54 2,5 C -0,9 C 2,3 C 72 % 994,8 hPa 0,0 l/m 21,8 km/h (4 Bft) O-NO45 75 0 min 0 lux 0 W/m
12.02.2016 23:59 2,5 C -0,9 C 2,3 C 72 % 994,8 hPa 0,0 l/m 19,3 km/h (3 Bft) O45 90 0 min 0 lux 0 W/m
_ Min-Zeit 10:44 19:34 00:04 15:59 14:33 - 00:14 - - - - -
Minimum _ 0,0 C -0,9 C 0,0 C 61 % 994,8 hPa - 0,0 km/h (0 Bft) - - - - -
_ Max-Zeit 12:29 12:59 15:49 00:04 08:19 00:04 13:14 - - 11:24 00:09 09:29
Maximum _ 7,0 C 22,9 C 6,8 C 86 % 1014,9 hPa 0,0 l/m 26,7 km/h
S-SO (4 Bft)
- - 6 min 200 klux 1368 W/m
Durchschnitt _ 3,9 C 6,9 C 1,6 C 74 % 998,3 hPa #0,0 l/m 11,9 km/h (2 Bft) S-SO - #4:34 h 11,8 klux 181 W/m